Погода в Нерюнгри

Погода в Нерюнгри : погода сейчас, прогноз погоды и архив. Всё, что Вы хотите узнать о погоде в Нерюнгри!

Хотите узнать прогноз погоды в Нерюнгри? Тогда Вам сюда: Погода в Нерюнгри

Поиск расширенной информации на нашем сайте:

Другие новости

Новости СМИ2

Главная страница сайта

Новости сайта

02.10.2013

Напоминаем, что на нашем новом сайте вы можете получить высокодетализированные прогнозы погоды по пунктам России, СНГ и мира (включающие важные для авиации метеовеличины, такие как направление и скорость ветра, видимость, явления погоды, количество и форма облачности, нижняя и верхняя граница облачности), а также ознакомиться с разнообразными материалами по авиационной метеорологии и подборкой полезных ссылок на эту тему.

Сайт Метеоцентр.Азия посвящён разработке технологий оптимизации авиаметеорологического обслуживания, включая проектирование и перспективное создание нескольких автоматизированных авиаметеорологических систем:
- система выпуска высокодетальных прогностических карт явлений погоды для нижнего воздушного пространства по России и ближнему зарубежью;
- система верификации прогнозов TAF (выпускаемых синоптиками официальных АМСГ РФ и ближнего зарубежья) и AUTOTAF (выпускаемых сайтом Метеоцентр.Азия) - выявление ошибок, онлайн-сопоставление с фактической погодой METAR, автоматическое внесение коррективов в прогнозы при резком отклонении фактической погоды от прогноза, подсчёт оправдываемости прогнозов по элементам и в целом;
- система обработки, анализа и отображения авиаметеорологической информации для применения провайдерами метеорологической информации.

Рекомендуем: Договор денежного займа между физическими лицами www.dengiyuga.ru.

Погода в Нерюнгри - сегодня

Время (UTC), дата Ветер
(°,м/с) 
Видим.   Явления Облачность Т
(°С)
Тd
(°С)
f(%) Тe
(°С)
Pmin
(гПа)
dP
(гПа)
Po
(мм)
O2
(г/м3)
Тmin Tmax R s Состояние
почвы
09 22.04.17 060 (СВ) 20000 м    10/3 600 м кучево-дожд., средняя 
[Cb cap|Ac trans]
+5.6 -5.1 46 +5  1008.4  0.3  681  269           
12 22.04.17 нст () 20000 м    10/4 600 м кучево-дожд., средняя, верхняя 
[Cb cap|Ac trans|Ci fib]
+3.9 -4.8 53 +5  1010.4  1.3  682  271    +6.2  0.5     
15 22.04.17 300 (СЗ) 20000 м    10/0 средняя, верхняя 
[Ac trans|Ci fib]
+0 -2.1 86 -1  1012.6  0.6  683  275           
18 22.04.17 310 (СЗ) 20000 м    4/0 средняя, верхняя 
[Ac trans|Ci fib]
-1.6 -3 90 -3  1013.8  0.6  683  277           
21 22.04.17 340 (С) 20000 м    5/0 средняя, верхняя 
[Ac trans|Ci fib]
-2.5 -4.1 89 -2  1015.1  0.8  684  278           
00 23.04.17 040 (СВ) 20000 м    4/0 средняя, верхняя 
[Ac trans|Ci fib]
+2.3 -6.4 53 +1  1013.6  0.5  684  274  -3      18  равномерный
мокрый или
старый снег
100% 
03 23.04.17 350 (С) 20000 м    8/3 600 м средняя, верхняя 
[Cu hum|Ac trans|Ci fib]
+5.7 -7.1 39 +5  1012.1  -0.4  684  271           
06 23.04.17 030 (СВ) 5{10}  20000 м    6/3 600 м средняя, верхняя 
[Cu hum|Ac trans|Ci fib]
+6.7 -8.1 34 +5  1011.5  -0.2  684  270           
09 23.04.17 040 (СВ) 5{10}  20000 м    10/4 600 м кучево-дожд., верхняя 
[Cb cap|Ci fib]
+6.1 -5.9 42 +4  1012.6  0.8  684  270           
12 23.04.17 050 (СВ) 20000 м    10/5 600 м кучево-дожд., верхняя 
[Cb cap|Ci fib]
+2.3 -3.7 64 1016.2  686  274    +7.3       
15 23.04.17 020 (С) 20000 м    10/4 600 м кучево-дожд., верхняя 
[Cb cap|Ci fib]
+0.8 -4.1 70 1017.8  0.9  687  276           
18 23.04.17 030 (СВ) 20000 м    10/5 600 м кучево-дожд., верхняя 
[Cb cap|Ci fib]
-0.8 -3.9 79 -2  1018.9  0.6  687  278           
21 23.04.17 010 (С) 20000 м    10/4 600 м кучево-дожд., верхняя 
[Cb cap|Ci fib]
-1.6 -4.6 80 -3  1021.1  1.5  688  279           
00 24.04.17 020 (С) 20000 м    10/3 600 м кучево-дожд., верхняя 
[Cb cap|Ci fib]
+1.2 -5.5 61 1021.2  689  277  -2      равномерный
мокрый или
старый снег
100% 
03 24.04.17 030 (СВ) 20000 м    10/5 1000 м верхняя 
[Sc|Ci fib]
+3.4 -6 50 +1  1020.6  0.4  689  275           
06 24.04.17 360 (С) 5{10}  20000 м  слаб. ливневой снег  10/6 700 м кучево-дожд., верхняя 
[Cb cap|Ci fib]
+3.2 -1.2 73 +1  1020.6  689  274           
09 24.04.17 350 (С) 5{11}  20000 м  {ливн. осадки}  10/5 600 м кучево-дожд., верхняя 
[Cb cap|Ci fib]
+4.2 -1.3 67 +2  1020.2  -0.1  689  273           
12 24.04.17 010 (С) 5{12}  20000 м  {ливн. осадки}  10/5 600 м кучево-дожд., верхняя 
[Cb cap|Ci fib]
+1.6 -3.2 70 -1  1022.8  1.4  690  277    +5.3  0.0     
15 24.04.17 360 (С) 20000 м    10/5 600 м кучево-дожд., средняя, верхняя 
[Cb cap|Ac trans|Ci fib]
+0.7 -2.9 77 -2  1023.5  0.4  691  278           
18 24.04.17 010 (С) 20000 м  в посл. час ливневой снег  10/5 600 м кучево-дожд., средняя, верхняя 
[Cb cap|Ac trans|Ci fib]
+0.5 -3.5 75 -1  1023.8  0.1  691  278           
21 24.04.17 360 (С) 20000 м    10/3 600 м верхняя 
[Sc|Ci fib]
-2.4 -6 76 -4  1025.1  0.1  691  281           
00 25.04.17 030 (СВ) 20000 м    10/1 600 м кучево-дожд., средняя, верхняя 
[Cb cap|Ac trans|Ci fib]
+2 -6.8 52 1023.4  0.1  691  277  -2.6    0.0  мокрый или
старый снег
50-90% 
03 25.04.17 020 (С) 5{11}  20000 м    10/5 600 м кучево-дожд., верхняя 
[Cb cap|Ci fib]
+3.7 -6.4 48 +1  1021.9  -0.8  690  275           
06 25.04.17 010 (С) 5-10{11}  20000 м    4/4 600 м 
[Sc]
+5.2 -7.5 39 +3  1020.3  -1  689  273           
09 25.04.17 020 (С) 5{11}  20000 м    3/3 1000 м 
[Sc]
+5.1 -8.6 36 +3  1019.3  -0.9  689  273           
Время (UTC), дата Ветер
(°,м/с) 
Видим.   Явления Облачность Т
(°С)
Тd
(°С)
f(%) Тe
(°С)
Pmin
(гПа)
dP
(гПа)
Po
(мм)
O2
(г/м3)
Тmin Tmax R s Состояние
почвы

Для получения пояснительной информации подведите курсор к названию столбца.

ПОГОДА в Нерюнгри - архив

Всё, что Вы хотите узнать о погоде в Нерюнгри - удобно и подробно!

Выберите нужную дату (начиная с 1 января 2015* года) и нажмите кнопку "Найти".
Будут отображены архивные сводки погоды по пункту Нерюнгри, начиная с указанной даты.


Отображать данные в формате CSV (для использования в таблицах Excel)


Внимание! Наш архив погоды предназначен исключительно для личного некоммерческого использования в познавательных целях. Если Вам необходимы официальные справки о состоянии погоды (для производственных, юридических, коммерческих и т.п. целей), обращайтесь в органы Росгидромета.

*Примечание: данная дата относится к архиву по метеостанциям СССР (Россия, СНГ, Балтия).
Архив по метеостанциям Зарубежной Европы и Азии (кроме Китая) хранится 10 дней, по другим регионам земного шара (Китай, Африка, Америка, Австралия, Океания) - 1 день.

Нерюнгри - район местоположения метеостанции


Название, широта, долгота, высота метеостанции:
Нерюнгри (Чульман) 56.8°ш. 124.9°д. 858 м над ур. моря [Российская Федерация]

Дополнительная информация

В oтличие oт бoльшинства пoгoдных сайтoв мы публикуем пoдрoбную метеoинфoрмацию в детальнoм прoфессиoнальнoм фoрмате.

Характеристики температуры и влажнoсти вoздуха измеряются на высoте 2 м в тени вдали oт зданий и деревьев.
Скoрoсть ветра измеряется на высoте 10 м (на урoвне рoста челoвека скoрoсть ветра ниже в 1.5-2 раза). Если метеoстанция нахoдится в гoрoде или в лесу, тo скoрoсть ветра занижена на 2-4 м/с пo сравнению с oткрытым местoм. Скoрoсть ветра над акватoриями крупных рек и oзёр, а также на вершинах хoлмoв на 2-5 м/с выше, чем в oбычных услoвиях.
Атмoсфернoе давление в разных тoчках местнoсти мoжет значительнo oтличаться oт давления на метеoстанции, в зависимoсти oт услoвий рельефа (при пoдъёме на 10 м давление пoнижается примернo на 1 мм рт.ст.).